| time (UTC) | temp F | wind direction | speed knots | gust knots | rain 1hr in | rain 24hr in | rain mn in | humidity % | barometer mb |
| 20260507210504 | 61 | 31 | 0.0 | 2.6 | 0.00 | 0.21 | 0.21 | 57 | 1013.0 |
| 20260507210006 | 61 | 31 | 1.7 | 2.6 | 0.00 | 0.21 | 0.21 | 57 | 1013.0 |
| 20260507205503 | 61 | 32 | 0.0 | 2.6 | 0.00 | 0.21 | 0.21 | 57 | 1013.0 |
| 20260507205004 | 61 | 31 | 0.0 | 2.6 | 0.00 | 0.21 | 0.21 | 57 | 1013.0 |
| 20260507204507 | 61 | 32 | 0.0 | 2.6 | 0.00 | 0.21 | 0.21 | 58 | 1013.0 |
| 20260507204003 | 61 | 32 | 0.0 | 2.6 | 0.00 | 0.21 | 0.21 | 58 | 1013.0 |
| 20260507203006 | 61 | 32 | 0.0 | 2.6 | 0.00 | 0.21 | 0.21 | 59 | 1013.0 |
| 20260507202504 | 61 | 32 | 0.0 | 2.6 | 0.00 | 0.21 | 0.21 | 60 | 1013.0 |
| 20260507201506 | 61 | 32 | 0.0 | 2.6 | 0.00 | 0.21 | 0.21 | 60 | 1013.0 |
| 20260507201003 | 61 | 32 | 0.0 | 2.6 | 0.00 | 0.21 | 0.21 | 60 | 1013.0 |
| 20260507200504 | 61 | 33 | 0.0 | 2.6 | 0.00 | 0.21 | 0.21 | 60 | 1013.0 |
| 20260507200006 | 61 | 34 | 0.0 | 2.6 | 0.00 | 0.21 | 0.21 | 60 | 1013.0 |
| 20260507195504 | 61 | 34 | 0.0 | 2.6 | 0.00 | 0.21 | 0.21 | 60 | 1013.0 |
| 20260507195004 | 61 | 34 | 0.0 | 1.7 | 0.00 | 0.21 | 0.21 | 60 | 1013.0 |
| 20260507194506 | 61 | 35 | 0.0 | 2.6 | 0.00 | 0.21 | 0.21 | 60 | 1013.0 |
| 20260507194003 | 61 | 35 | 0.0 | 2.6 | 0.00 | 0.21 | 0.21 | 60 | 1013.0 |
| 20260507193504 | 61 | 37 | 0.0 | 2.6 | 0.00 | 0.21 | 0.21 | 60 | 1013.0 |
| 20260507193007 | 61 | 41 | 0.0 | 2.6 | 0.00 | 0.21 | 0.21 | 59 | 1013.0 |
| 20260507192503 | 61 | 45 | 0.0 | 2.6 | 0.00 | 0.21 | 0.21 | 59 | 1013.0 |
| 20260507192003 | 61 | 43 | 0.0 | 2.6 | 0.00 | 0.21 | 0.21 | 59 | 1013.0 |
| 20260507191507 | 62 | 44 | 0.0 | 2.6 | 0.00 | 0.21 | 0.21 | 59 | 1013.0 |
| 20260507191004 | 62 | 48 | 1.7 | 2.6 | 0.00 | 0.21 | 0.21 | 58 | 1013.0 |
| 20260507190504 | 62 | 46 | 0.0 | 2.6 | 0.00 | 0.21 | 0.21 | 58 | 1013.0 |
| 20260507190006 | 62 | 43 | 0.0 | 2.6 | 0.00 | 0.21 | 0.21 | 57 | 1013.0 |
| 20260507185504 | 62 | 38 | 1.7 | 2.6 | 0.00 | 0.21 | 0.21 | 55 | 1013.0 |
| 20260507185003 | 63 | 45 | 1.7 | 3.5 | 0.00 | 0.21 | 0.21 | 54 | 1013.0 |
| 20260507184506 | 63 | 73 | 0.0 | 3.5 | 0.00 | 0.21 | 0.21 | 53 | 1013.0 |
| 20260507184004 | 64 | 103 | 1.7 | 3.5 | 0.00 | 0.21 | 0.21 | 52 | 1013.0 |
| 20260507183504 | 64 | 110 | 2.6 | 3.5 | 0.00 | 0.21 | 0.21 | 52 | 1013.0 |
| 20260507183006 | 64 | 114 | 1.7 | 3.5 | 0.00 | 0.21 | 0.21 | 51 | 1013.0 |
| 20260507181507 | 64 | 111 | 1.7 | 3.5 | 0.00 | 0.21 | 0.21 | 51 | 1013.0 |
| 20260507181004 | 64 | 106 | 0.0 | 3.5 | 0.00 | 0.21 | 0.21 | 51 | 1013.0 |
| 20260507180503 | 64 | 97 | 1.7 | 2.6 | 0.00 | 0.21 | 0.21 | 51 | 1013.0 |
| 20260507180006 | 64 | 90 | 0.0 | 2.6 | 0.00 | 0.21 | 0.21 | 51 | 1013.0 |
| 20260507175504 | 64 | 96 | 0.0 | 2.6 | 0.00 | 0.21 | 0.21 | 50 | 1013.0 |
| 20260507175003 | 65 | 112 | 0.0 | 2.6 | 0.00 | 0.21 | 0.21 | 50 | 1012.0 |
| 20260507174506 | 65 | 131 | 0.0 | 2.6 | 0.00 | 0.21 | 0.21 | 49 | 1012.0 |
| 20260507174004 | 65 | 130 | 0.0 | 1.7 | 0.00 | 0.21 | 0.21 | 49 | 1012.0 |
| 20260507173504 | 66 | 142 | 0.0 | 3.5 | 0.00 | 0.21 | 0.21 | 48 | 1013.0 |
| 20260507173006 | 65 | 136 | 0.0 | 3.5 | 0.00 | 0.21 | 0.21 | 48 | 1013.0 |
| 20260507172004 | 66 | 152 | 2.6 | 3.5 | 0.00 | 0.21 | 0.21 | 48 | 1012.0 |
| 20260507171506 | 66 | 137 | 0.0 | 2.6 | 0.00 | 0.21 | 0.21 | 47 | 1012.0 |
| 20260507171004 | 66 | 150 | 0.0 | 3.5 | 0.00 | 0.21 | 0.21 | 46 | 1012.0 |
| 20260507170503 | 67 | 160 | 1.7 | 3.5 | 0.00 | 0.21 | 0.21 | 46 | 1013.0 |
| 20260507170007 | 67 | 145 | 0.0 | 2.6 | 0.00 | 0.21 | 0.21 | 46 | 1013.0 |
| 20260507165503 | 67 | 142 | 1.7 | 2.6 | 0.00 | 0.21 | 0.21 | 45 | 1013.0 |
| 20260507165004 | 67 | 142 | 0.0 | 3.5 | 0.00 | 0.21 | 0.21 | 45 | 1013.0 |
| 20260507164506 | 67 | 139 | 0.0 | 3.5 | 0.00 | 0.21 | 0.21 | 44 | 1013.0 |
| 20260507164004 | 67 | 142 | 1.7 | 2.6 | 0.00 | 0.21 | 0.21 | 43 | 1013.0 |
| 20260507162007 | 68 | 153 | 3.5 | 4.3 | 0.00 | 0.21 | 0.21 | 42 | 1012.0 |
| 20260507161509 | 69 | 142 | 1.7 | 4.3 | 0.00 | 0.21 | 0.21 | 42 | 1012.0 |
| 20260507161006 | 68 | 129 | 0.0 | 4.3 | 0.00 | 0.21 | 0.21 | 41 | 1012.0 |
| 20260507160506 | 69 | 139 | 2.6 | 5.2 | 0.00 | 0.21 | 0.21 | 41 | 1012.0 |
| 20260507160010 | 69 | 149 | 3.5 | 5.2 | 0.00 | 0.21 | 0.21 | 41 | 1012.0 |
| 20260507155507 | 69 | 149 | 3.5 | 5.2 | 0.00 | 0.21 | 0.21 | 42 | 1012.0 |
| 20260507154510 | 69 | 156 | 2.6 | 5.2 | 0.00 | 0.21 | 0.21 | 39 | 1013.0 |
| 20260507154008 | 69 | 151 | 2.6 | 5.2 | 0.00 | 0.21 | 0.21 | 39 | 1013.0 |
| 20260507153506 | 70 | 143 | 1.7 | 5.2 | 0.00 | 0.21 | 0.21 | 39 | 1013.0 |
| 20260507153010 | 70 | 145 | 1.7 | 5.2 | 0.00 | 0.21 | 0.21 | 39 | 1013.0 |
| 20260507152507 | 70 | 145 | 3.5 | 5.2 | 0.00 | 0.21 | 0.21 | 39 | 1013.0 |
| 20260507152007 | 71 | 140 | 2.6 | 4.3 | 0.00 | 0.21 | 0.21 | 39 | 1013.0 |
| 20260507151509 | 70 | 143 | 3.5 | 5.2 | 0.00 | 0.21 | 0.21 | 38 | 1013.0 |
| 20260507151006 | 70 | 137 | 3.5 | 5.2 | 0.00 | 0.21 | 0.21 | 37 | 1013.0 |
| 20260507150009 | 72 | 147 | 2.6 | 5.2 | 0.00 | 0.21 | 0.21 | 38 | 1013.0 |
| 20260507145506 | 70 | 149 | 3.5 | 5.2 | 0.00 | 0.21 | 0.21 | 37 | 1013.0 |
| 20260507145006 | 71 | 152 | 3.5 | 5.2 | 0.00 | 0.21 | 0.21 | 38 | 1013.0 |
| 20260507144007 | 72 | 147 | 3.5 | 7.0 | 0.00 | 0.21 | 0.21 | 37 | 1013.0 |
| 20260507143507 | 72 | 147 | 3.5 | 7.0 | 0.00 | 0.21 | 0.21 | 37 | 1013.0 |
| 20260507143009 | 72 | 146 | 3.5 | 7.0 | 0.00 | 0.21 | 0.21 | 37 | 1013.0 |
| 20260507142506 | 72 | 146 | 3.5 | 5.2 | 0.00 | 0.21 | 0.21 | 37 | 1013.0 |
| 20260507142006 | 73 | 152 | 3.5 | 5.2 | 0.00 | 0.21 | 0.21 | 38 | 1013.0 |
| 20260507141509 | 73 | 152 | 0.0 | 7.0 | 0.00 | 0.21 | 0.21 | 40 | 1013.0 |
| 20260507140507 | 73 | 149 | 3.5 | 5.2 | 0.00 | 0.21 | 0.21 | 39 | 1013.0 |
| 20260507140010 | 73 | 147 | 3.5 | 5.2 | 0.00 | 0.21 | 0.21 | 41 | 1013.0 |
| 20260507135506 | 74 | 153 | 3.5 | 5.2 | 0.00 | 0.21 | 0.21 | 40 | 1013.0 |
| 20260507134509 | 73 | 149 | 3.5 | 5.2 | 0.00 | 0.21 | 0.21 | 42 | 1013.0 |
| 20260507132507 | 73 | 164 | 2.6 | 5.2 | 0.00 | 0.21 | 0.21 | 45 | 1014.0 |
| 20260507132007 | 71 | 168 | 3.5 | 5.2 | 0.00 | 0.21 | 0.21 | 46 | 1014.0 |
| 20260507131510 | 71 | 171 | 3.5 | 5.2 | 0.00 | 0.21 | 0.21 | 46 | 1014.0 |
| 20260507131007 | 72 | 167 | 1.7 | 5.2 | 0.00 | 0.21 | 0.21 | 48 | 1014.0 |
| 20260507130507 | 72 | 160 | 2.6 | 5.2 | 0.00 | 0.21 | 0.21 | 50 | 1014.0 |
| 20260507130009 | 73 | 155 | 3.5 | 4.3 | 0.00 | 0.21 | 0.21 | 51 | 1014.0 |
| 20260507125506 | 71 | 154 | 0.0 | 4.3 | 0.00 | 0.21 | 0.21 | 53 | 1014.0 |
| 20260507124510 | 71 | 154 | 3.5 | 5.2 | 0.00 | 0.21 | 0.21 | 59 | 1014.0 |
| 20260507124006 | 71 | 145 | 0.0 | 5.2 | 0.00 | 0.21 | 0.21 | 59 | 1014.0 |
| 20260507123506 | 70 | 143 | 3.5 | 5.2 | 0.00 | 0.21 | 0.21 | 62 | 1013.0 |
| 20260507122507 | 69 | 156 | 2.6 | 5.2 | 0.00 | 0.21 | 0.21 | 66 | 1013.0 |
| 20260507122007 | 69 | 149 | 2.6 | 4.3 | 0.00 | 0.21 | 0.21 | 68 | 1014.0 |
| 20260507121510 | 68 | 145 | 0.0 | 3.5 | 0.00 | 0.21 | 0.21 | 68 | 1014.0 |
| 20260507121006 | 67 | 141 | 1.7 | 4.3 | 0.00 | 0.21 | 0.21 | 69 | 1014.0 |
| 20260507120506 | 67 | 141 | 3.5 | 4.3 | 0.00 | 0.21 | 0.21 | 68 | 1014.0 |
| 20260507120010 | 67 | 157 | 2.6 | 4.3 | 0.00 | 0.21 | 0.21 | 69 | 1014.0 |
| 20260507115507 | 67 | 159 | 2.6 | 5.2 | 0.00 | 0.21 | 0.21 | 68 | 1014.0 |
| 20260507115007 | 68 | 155 | 2.6 | 5.2 | 0.00 | 0.21 | 0.21 | 69 | 1014.0 |
| 20260507114006 | 68 | 152 | 2.6 | 5.2 | 0.00 | 0.21 | 0.21 | 70 | 1014.0 |
| 20260507113009 | 67 | 150 | 2.6 | 4.3 | 0.00 | 0.21 | 0.21 | 70 | 1014.0 |
| 20260507112506 | 67 | 150 | 2.6 | 4.3 | 0.00 | 0.21 | 0.21 | 69 | 1014.0 |
| 20260507112007 | 67 | 145 | 3.5 | 5.2 | 0.00 | 0.21 | 0.21 | 70 | 1015.0 |
| 20260507111006 | 67 | 147 | 3.5 | 5.2 | 0.00 | 0.21 | 0.21 | 70 | 1015.0 |
| 20260507110506 | 67 | 144 | 1.7 | 5.2 | 0.00 | 0.21 | 0.21 | 71 | 1015.0 |
| 20260507110009 | 67 | 150 | 1.7 | 4.3 | 0.00 | 0.21 | 0.21 | 71 | 1015.0 |
| 20260507105507 | 66 | 144 | 3.5 | 7.0 | 0.00 | 0.21 | 0.21 | 70 | 1015.0 |
| 20260507105007 | 67 | 144 | 3.5 | 7.0 | 0.00 | 0.21 | 0.21 | 70 | 1015.0 |
| 20260507104006 | 66 | 144 | 2.6 | 5.2 | 0.00 | 0.21 | 0.21 | 71 | 1015.0 |
| 20260507103507 | 66 | 145 | 2.6 | 5.2 | 0.00 | 0.21 | 0.21 | 71 | 1015.0 |
| 20260507103009 | 67 | 147 | 1.7 | 5.2 | 0.00 | 0.21 | 0.21 | 72 | 1015.0 |
| 20260507102506 | 67 | 150 | 1.7 | 6.1 | 0.00 | 0.21 | 0.21 | 71 | 1015.0 |
| 20260507102007 | 67 | 148 | 3.5 | 6.1 | 0.00 | 0.21 | 0.21 | 71 | 1015.0 |
| 20260507101509 | 68 | 149 | 2.6 | 6.1 | 0.00 | 0.21 | 0.21 | 72 | 1015.0 |
| 20260507101007 | 67 | 147 | 2.6 | 6.1 | 0.00 | 0.21 | 0.21 | 73 | 1015.0 |
| 20260507100507 | 68 | 146 | 1.7 | 5.2 | 0.00 | 0.21 | 0.21 | 73 | 1015.0 |
| 20260507100009 | 68 | 141 | 3.5 | 7.0 | 0.00 | 0.21 | 0.21 | 75 | 1015.0 |
| 20260507095506 | 68 | 139 | 1.7 | 7.0 | 0.00 | 0.21 | 0.21 | 76 | 1015.0 |
| 20260507095006 | 67 | 130 | 3.5 | 5.2 | 0.00 | 0.21 | 0.21 | 76 | 1015.0 |
| 20260507094006 | 66 | 143 | 2.6 | 5.2 | 0.00 | 0.21 | 0.21 | 77 | 1015.0 |
| 20260507093506 | 66 | 128 | 3.5 | 5.2 | 0.00 | 0.21 | 0.21 | 78 | 1014.0 |
| 20260507092507 | 66 | 119 | 2.6 | 4.3 | 0.00 | 0.21 | 0.21 | 79 | 1014.0 |
| 20260507092007 | 66 | 110 | 2.6 | 3.5 | 0.00 | 0.21 | 0.21 | 80 | 1015.0 |
| 20260507091510 | 65 | 114 | 0.0 | 2.6 | 0.00 | 0.21 | 0.21 | 82 | 1015.0 |
| 20260507091006 | 65 | 141 | 0.0 | 4.3 | 0.00 | 0.21 | 0.21 | 82 | 1015.0 |
| 20260507090507 | 64 | 133 | 0.0 | 5.2 | 0.00 | 0.21 | 0.21 | 82 | 1015.0 |
| 20260507090010 | 64 | 117 | 0.0 | 5.2 | 0.00 | 0.21 | 0.21 | 83 | 1015.0 |
| 20260507085506 | 64 | 109 | 2.6 | 5.2 | 0.00 | 0.21 | 0.21 | 83 | 1015.0 |
| 20260507085006 | 63 | 97 | 3.5 | 5.2 | 0.00 | 0.21 | 0.21 | 84 | 1014.0 |
| 20260507084510 | 63 | 94 | 2.6 | 4.3 | 0.00 | 0.21 | 0.21 | 85 | 1014.0 |
| 20260507084006 | 63 | 107 | 2.6 | 5.2 | 0.00 | 0.21 | 0.21 | 85 | 1014.0 |
| 20260507083009 | 63 | 89 | 2.6 | 5.2 | 0.00 | 0.21 | 0.21 | 85 | 1014.0 |
| 20260507082506 | 63 | 73 | 0.0 | 5.2 | 0.00 | 0.21 | 0.21 | 86 | 1014.0 |
| 20260507082007 | 62 | 54 | 2.6 | 5.2 | 0.00 | 0.21 | 0.21 | 87 | 1014.0 |
| 20260507081006 | 62 | 41 | 3.5 | 7.0 | 0.00 | 0.21 | 0.21 | 89 | 1014.0 |
| 20260507080506 | 62 | 51 | 3.5 | 5.2 | 0.00 | 0.21 | 0.21 | 90 | 1014.0 |
| 20260507075506 | 62 | 49 | 3.5 | 5.2 | 0.00 | 0.21 | 0.21 | 90 | 1014.0 |
| 20260507075006 | 62 | 52 | 3.5 | 5.2 | 0.00 | 0.21 | 0.21 | 90 | 1014.0 |
| 20260507074006 | 62 | 47 | 3.5 | 7.0 | 0.00 | 0.21 | 0.21 | 90 | 1014.0 |
| 20260507073009 | 61 | 41 | 4.3 | 7.0 | 0.00 | 0.21 | 0.21 | 90 | 1014.0 |
| 20260507072007 | 62 | 53 | 0.0 | 3.5 | 0.00 | 0.21 | 0.21 | 90 | 1015.0 |
| 20260507071509 | 62 | 80 | 0.0 | 3.5 | 0.00 | 0.21 | 0.21 | 90 | 1015.0 |
| 20260507070507 | 62 | 90 | 1.7 | 4.3 | 0.00 | 0.21 | 0.21 | 91 | 1015.0 |
| 20260507070012 | 62 | 88 | 0.0 | 4.3 | 0.00 | 0.21 | 0.21 | 91 | 1015.0 |
| 20260507065507 | 62 | 87 | 2.6 | 3.5 | 0.00 | 0.21 | 0.21 | 91 | 1015.0 |
| 20260507065007 | 62 | 66 | 1.7 | 3.5 | 0.00 | 0.21 | 0.21 | 91 | 1015.0 |
| 20260507064509 | 62 | 63 | 0.0 | 2.6 | 0.00 | 0.21 | 0.21 | 92 | 1015.0 |
| 20260507063506 | 62 | 58 | 0.0 | 4.3 | 0.00 | 0.21 | 0.21 | 92 | 1015.0 |
| 20260507063009 | 62 | 53 | 1.7 | 4.3 | 0.00 | 0.21 | 0.21 | 92 | 1015.0 |
| 20260507062506 | 62 | 59 | 0.0 | 3.5 | 0.00 | 0.21 | 0.21 | 92 | 1015.0 |
| 20260507062006 | 61 | 63 | 2.6 | 3.5 | 0.00 | 0.21 | 0.21 | 92 | 1015.0 |
| 20260507060507 | 61 | 40 | 2.6 | 2.6 | 0.00 | 0.21 | 0.21 | 92 | 1015.0 |
| 20260507060010 | 61 | 28 | 0.0 | 2.6 | 0.00 | 0.21 | 0.21 | 92 | 1015.0 |
| 20260507055506 | 61 | 38 | 0.0 | 2.6 | 0.00 | 0.21 | 0.21 | 92 | 1015.0 |
| 20260507054509 | 61 | 74 | 0.0 | 2.6 | 0.00 | 0.21 | 0.21 | 92 | 1015.0 |
| 20260507054006 | 61 | 66 | 0.0 | 2.6 | 0.00 | 0.21 | 0.21 | 92 | 1015.0 |
| 20260507053506 | 61 | 75 | 0.0 | 2.6 | 0.00 | 0.21 | 0.21 | 92 | 1015.0 |
| 20260507053009 | 61 | 105 | 0.0 | 2.6 | 0.00 | 0.21 | 0.21 | 92 | 1015.0 |
| 20260507052007 | 61 | 169 | 0.0 | 2.6 | 0.00 | 0.21 | 0.21 | 92 | 1015.0 |
| 20260507051510 | 61 | 156 | 0.0 | 2.6 | 0.00 | 0.21 | 0.21 | 92 | 1015.0 |
| 20260507051006 | 61 | 142 | 0.0 | 2.6 | 0.00 | 0.21 | 0.21 | 92 | 1015.0 |
| 20260507050009 | 60 | 55 | 0.0 | 3.5 | 0.00 | 0.21 | 0.21 | 93 | 1014.0 |
| 20260507045006 | 60 | 5 | 1.7 | 3.5 | 0.00 | 0.21 | 0.21 | 94 | 1014.0 |
| 20260507044006 | 60 | 29 | 1.7 | 5.2 | 0.00 | 0.21 | 0.21 | 95 | 1014.0 |
| 20260507042506 | 60 | 20 | 2.6 | 5.2 | 0.01 | 0.21 | 0.21 | 96 | 1014.0 |
| 20260507042006 | 61 | 24 | 2.6 | 3.5 | 0.01 | 0.21 | 0.21 | 96 | 1014.0 |
| 20260507041509 | 61 | 30 | 2.6 | 3.5 | 0.02 | 0.21 | 0.21 | 96 | 1014.0 |
| 20260507041006 | 61 | 32 | 1.7 | 3.5 | 0.03 | 0.21 | 0.21 | 96 | 1014.0 |
| 20260507040507 | 61 | 33 | 0.0 | 3.5 | 0.04 | 0.21 | 0.21 | 96 | 1014.0 |
| 20260507040009 | 61 | 36 | 2.6 | 4.3 | 0.04 | 0.21 | 0.21 | 96 | 1014.0 |
| 20260507035506 | 61 | 42 | 3.5 | 4.3 | 0.04 | 0.21 | 0.21 | 96 | 1014.0 |
| 20260507035006 | 61 | 44 | 2.6 | 3.5 | 0.05 | 0.21 | 0.21 | 96 | 1014.0 |
| 20260507034509 | 61 | 31 | 0.0 | 6.1 | 0.04 | 0.20 | 0.20 | 95 | 1014.0 |
| 20260507034007 | 61 | 24 | 3.5 | 6.1 | 0.04 | 0.20 | 0.20 | 95 | 1014.0 |
| 20260507033507 | 61 | 24 | 2.6 | 3.5 | 0.04 | 0.20 | 0.20 | 95 | 1014.0 |
| 20260507032007 | 61 | 47 | 0.0 | 3.5 | 0.04 | 0.20 | 0.20 | 95 | 1014.0 |
| 20260507031510 | 61 | 64 | 0.0 | 3.5 | 0.03 | 0.19 | 0.19 | 95 | 1014.0 |
| 20260507031007 | 61 | 68 | 0.0 | 2.6 | 0.02 | 0.18 | 0.18 | 95 | 1014.0 |
| 20260507030507 | 61 | 61 | 1.7 | 3.5 | 0.01 | 0.17 | 0.17 | 95 | 1014.0 |
| 20260507030009 | 61 | 59 | 0.0 | 3.5 | 0.00 | 0.17 | 0.17 | 95 | 1014.0 |
| 20260507025506 | 61 | 83 | 2.6 | 3.5 | 0.00 | 0.17 | 0.17 | 95 | 1014.0 |
| 20260507025006 | 61 | 108 | 1.7 | 4.3 | 0.00 | 0.16 | 0.16 | 94 | 1014.0 |
| 20260507024509 | 61 | 110 | 2.6 | 4.3 | 0.00 | 0.16 | 0.16 | 94 | 1014.0 |
| 20260507024006 | 61 | 113 | 0.0 | 5.2 | 0.00 | 0.16 | 0.16 | 94 | 1014.0 |
| 20260507023506 | 61 | 116 | 2.6 | 5.2 | 0.01 | 0.16 | 0.16 | 94 | 1014.0 |
| 20260507023009 | 61 | 122 | 0.0 | 3.5 | 0.01 | 0.16 | 0.16 | 93 | 1014.0 |
| 20260507022506 | 61 | 133 | 0.0 | 2.6 | 0.01 | 0.16 | 0.16 | 93 | 1014.0 |
| 20260507022006 | 61 | 155 | 0.0 | 3.5 | 0.02 | 0.16 | 0.16 | 93 | 1013.0 |
| 20260507021006 | 61 | 174 | 2.6 | 3.5 | 0.03 | 0.16 | 0.16 | 93 | 1013.0 |
| 20260507020506 | 61 | 15 | 0.0 | 3.5 | 0.03 | 0.16 | 0.16 | 93 | 1012.0 |
| 20260507020009 | 61 | 22 | 1.7 | 5.2 | 0.04 | 0.16 | 0.16 | 94 | 1012.0 |
| 20260507015007 | 61 | 17 | 2.6 | 6.1 | 0.04 | 0.16 | 0.16 | 95 | 1012.0 |
| 20260507014510 | 61 | 16 | 3.5 | 6.1 | 0.04 | 0.16 | 0.16 | 95 | 1012.0 |
| 20260507014006 | 61 | 8 | 3.5 | 5.2 | 0.04 | 0.16 | 0.16 | 95 | 1012.0 |
| 20260507013507 | 61 | 10 | 3.5 | 4.3 | 0.03 | 0.15 | 0.15 | 95 | 1014.0 |
| 20260507013009 | 62 | 32 | 2.6 | 3.5 | 0.03 | 0.15 | 0.15 | 95 | 1014.0 |
| 20260507012006 | 62 | 33 | 2.6 | 3.5 | 0.02 | 0.15 | 0.15 | 94 | 1014.0 |
| 20260507011509 | 62 | 52 | 2.6 | 3.5 | 0.02 | 0.14 | 0.14 | 94 | 1014.0 |
| 20260507011006 | 62 | 127 | 0.0 | 3.5 | 0.01 | 0.13 | 0.13 | 94 | 1014.0 |
| 20260507010506 | 62 | 129 | 0.0 | 2.6 | 0.01 | 0.13 | 0.13 | 94 | 1014.0 |
| 20260507010009 | 62 | 108 | 0.0 | 2.6 | 0.00 | 0.13 | 0.13 | 94 | 1014.0 |
| 20260507005006 | 62 | 49 | 0.0 | 2.6 | 0.00 | 0.12 | 0.12 | 94 | 1013.0 |
| 20260507004509 | 62 | 28 | 0.0 | 3.5 | 0.00 | 0.12 | 0.12 | 94 | 1013.0 |
| 20260507004006 | 62 | 36 | 2.6 | 3.5 | 0.00 | 0.12 | 0.12 | 94 | 1013.0 |
| 20260507003506 | 62 | 67 | 0.0 | 2.6 | 0.00 | 0.12 | 0.12 | 94 | 1014.0 |
| 20260507003009 | 62 | 100 | 0.0 | 2.6 | 0.00 | 0.12 | 0.12 | 94 | 1014.0 |
| 20260507002506 | 62 | 102 | 0.0 | 2.6 | 0.00 | 0.12 | 0.12 | 94 | 1014.0 |
| 20260507002006 | 62 | 99 | 0.0 | 3.5 | 0.01 | 0.12 | 0.12 | 94 | 1013.0 |
| 20260507001006 | 62 | 117 | 1.7 | 3.5 | 0.04 | 0.12 | 0.12 | 94 | 1013.0 |
| 20260507000009 | 62 | 110 | 0.0 | 2.6 | 0.06 | 0.12 | 0.12 | 94 | 1013.0 |
| 20260506235006 | 62 | 99 | 0.0 | 3.5 | 0.07 | 0.12 | 0.12 | 95 | 1013.0 |
| 20260506234509 | 62 | 112 | 1.7 | 2.6 | 0.09 | 0.12 | 0.12 | 95 | 1013.0 |
| 20260506233506 | 62 | 46 | 0.0 | 3.5 | 0.11 | 0.12 | 0.12 | 95 | 1013.0 |
| 20260506233009 | 61 | 39 | 2.6 | 3.5 | 0.11 | 0.12 | 0.12 | 95 | 1013.0 |
| 20260506232506 | 62 | 26 | 1.7 | 3.5 | 0.11 | 0.12 | 0.12 | 94 | 1013.0 |
| 20260506232006 | 62 | 18 | 2.6 | 3.5 | 0.11 | 0.11 | 0.11 | 94 | 1013.0 |
| 20260506231509 | 62 | 20 | 0.0 | 4.3 | 0.10 | 0.10 | 0.10 | 94 | 1013.0 |
| 20260506231006 | 62 | 24 | 2.6 | 4.3 | 0.08 | 0.08 | 0.08 | 93 | 1013.0 |
| 20260506230506 | 62 | 34 | 0.0 | 2.6 | 0.07 | 0.07 | 0.07 | 93 | 1013.0 |
| 20260506230009 | 62 | 44 | 0.0 | 2.6 | 0.07 | 0.07 | 0.07 | 93 | 1013.0 |
| 20260506225507 | 62 | 43 | 0.0 | 2.6 | 0.06 | 0.06 | 0.06 | 93 | 1013.0 |
| 20260506224509 | 62 | 91 | 0.0 | 2.6 | 0.02 | 0.02 | 0.02 | 92 | 1014.0 |
| 20260506224006 | 62 | 91 | 2.6 | 2.6 | 0.02 | 0.02 | 0.02 | 91 | 1014.0 |
| 20260506223506 | 62 | 69 | 0.0 | 2.6 | 0.01 | 0.01 | 0.01 | 91 | 1014.0 |
| 20260506223009 | 62 | 73 | 0.0 | 2.6 | 0.01 | 0.01 | 0.01 | 91 | 1014.0 |
| 20260506222507 | 63 | 112 | 0.0 | 2.6 | 0.01 | 0.01 | 0.01 | 90 | 1014.0 |
| 20260506222006 | 63 | 112 | 0.0 | 1.7 | 0.00 | 0.00 | 0.00 | 90 | 1014.0 |
| 20260506221006 | 63 | 112 | 0.0 | 2.6 | 0.00 | 0.00 | 0.00 | 89 | 1014.0 |
| 20260506220506 | 63 | 139 | 0.0 | 2.6 | 0.00 | 0.00 | 0.00 | 88 | 1014.0 |
| 20260506220009 | 63 | 156 | 0.0 | 2.6 | 0.00 | 0.00 | 0.00 | 88 | 1014.0 |
| 20260506215506 | 63 | 160 | 0.0 | 2.6 | 0.00 | 0.00 | 0.00 | 88 | 1014.0 |
| 20260506214006 | 63 | 131 | 0.0 | 2.6 | 0.00 | 0.00 | 0.00 | 87 | 1014.0 |
| 20260506213506 | 63 | 141 | 0.0 | 3.5 | 0.00 | 0.00 | 0.00 | 86 | 1014.0 |
| 20260506213009 | 63 | 136 | 0.0 | 3.5 | 0.00 | 0.00 | 0.00 | 86 | 1014.0 |
| 20260506212006 | 63 | 131 | 1.7 | 3.5 | 0.00 | 0.00 | 0.00 | 86 | 1014.0 |
| 20260506211509 | 63 | 149 | 1.7 | 3.5 | 0.00 | 0.00 | 0.00 | 86 | 1014.0 |
| 20260506211006 | 63 | 136 | 0.0 | 3.5 | 0.00 | 0.00 | 0.00 | 86 | 1014.0 |